| time (UTC) | temp F | wind direction | speed MPH | gust MPH | rain 1hr in | rain 24hr in | rain mn in | humidity % | barometer mb |
| 20260831050855 | 60 | 165 | 7.0 | 13.0 | 0.00 | 0.06 | 0.06 | 94 | 1008.6 |
| 20260831045855 | 60 | 168 | 7.0 | 11.0 | 0.00 | 0.06 | 0.06 | 94 | 1008.6 |
| 20260831044855 | 60 | 165 | 6.0 | 11.0 | 0.00 | 0.06 | 0.06 | 95 | 1008.5 |
| 20260831043854 | 60 | 165 | 5.0 | 9.0 | 0.00 | 0.06 | 0.06 | 94 | 1008.3 |
| 20260831041854 | 60 | 166 | 6.0 | 10.0 | 0.00 | 0.06 | 0.06 | 95 | 1008.4 |
| 20260831040854 | 61 | 163 | 6.0 | 9.0 | 0.00 | 0.06 | 0.06 | 94 | 1008.6 |
| 20260831035854 | 61 | 168 | 7.0 | 11.0 | 0.00 | 0.06 | 0.06 | 94 | 1008.6 |
| 20260831034854 | 61 | 171 | 7.0 | 12.0 | 0.00 | 0.06 | 0.06 | 94 | 1008.7 |
| 20260831032855 | 61 | 173 | 8.0 | 14.0 | 0.00 | 0.06 | 0.06 | 95 | 1008.7 |
| 20260831031855 | 61 | 168 | 7.0 | 13.0 | 0.00 | 0.06 | 0.06 | 95 | 1008.7 |
| 20260831030855 | 60 | 168 | 6.0 | 10.0 | 0.00 | 0.06 | 0.06 | 96 | 1008.7 |
| 20260831025855 | 60 | 164 | 5.0 | 9.0 | 0.00 | 0.06 | 0.06 | 96 | 1008.7 |
| 20260831023855 | 60 | 161 | 5.0 | 8.0 | 0.00 | 0.06 | 0.06 | 95 | 1008.6 |
| 20260831022855 | 61 | 166 | 5.0 | 8.0 | 0.00 | 0.06 | 0.06 | 95 | 1008.6 |
| 20260831021855 | 61 | 165 | 5.0 | 9.0 | 0.00 | 0.06 | 0.06 | 95 | 1008.6 |
| 20260831020854 | 61 | 165 | 4.0 | 8.0 | 0.00 | 0.06 | 0.06 | 95 | 1008.4 |
| 20260831015855 | 62 | 167 | 4.0 | 8.0 | 0.00 | 0.06 | 0.06 | 95 | 1008.4 |
| 20260831014855 | 62 | 168 | 5.0 | 10.0 | 0.06 | 0.06 | 0.06 | 95 | 1008.6 |
| 20260831013855 | 62 | 161 | 3.0 | 6.0 | 0.06 | 0.06 | 0.06 | 94 | 1008.7 |
| 20260831011855 | 63 | 174 | 6.0 | 10.0 | 0.06 | 0.06 | 0.06 | 94 | 1008.9 |
| 20260831010854 | 63 | 184 | 6.0 | 11.0 | 0.06 | 0.06 | 0.06 | 94 | 1008.9 |
| 20260831005855 | 63 | 174 | 7.0 | 14.0 | 0.06 | 0.06 | 0.06 | 93 | 1008.9 |
| 20260831004855 | 63 | 166 | 4.0 | 6.0 | 0.00 | 0.00 | 0.00 | 94 | 1008.7 |
| 20260831002855 | 62 | 157 | 4.0 | 7.0 | 0.00 | 0.00 | 0.00 | 95 | 1008.7 |
| 20260830235855 | 62 | 147 | 3.0 | 6.0 | 0.00 | 0.00 | 0.00 | 94 | 1008.8 |
| 20260830234855 | 62 | 140 | 3.0 | 6.0 | 0.00 | 0.00 | 0.00 | 94 | 1008.9 |
| 20260830232856 | 63 | 148 | 3.0 | 5.0 | 0.00 | 0.00 | 0.00 | 93 | 1009.2 |
| 20260830231855 | 63 | 154 | 3.0 | 6.0 | 0.00 | 0.00 | 0.00 | 93 | 1009.2 |
| 20260830225856 | 63 | 156 | 4.0 | 7.0 | 0.00 | 0.00 | 0.00 | 92 | 1009.2 |
| 20260830224855 | 63 | 157 | 4.0 | 7.0 | 0.00 | 0.00 | 0.00 | 92 | 1009.2 |
| 20260830223857 | 63 | 159 | 5.0 | 8.0 | 0.00 | 0.00 | 0.00 | 92 | 1009.3 |
| 20260830222855 | 63 | 158 | 4.0 | 7.0 | 0.00 | 0.00 | 0.00 | 93 | 1009.3 |
| 20260830221855 | 63 | 154 | 4.0 | 8.0 | 0.00 | 0.00 | 0.00 | 93 | 1009.3 |
| 20260830220855 | 63 | 146 | 4.0 | 8.0 | 0.00 | 0.00 | 0.00 | 94 | 1009.4 |
| 20260830215900 | 63 | 146 | 3.0 | 8.0 | 0.00 | 0.00 | 0.00 | 94 | 1009.4 |
| 20260830214855 | 63 | 155 | 2.0 | 4.0 | 0.00 | 0.00 | 0.00 | 94 | 1009.8 |
| 20260830213855 | 63 | 156 | 1.0 | 3.0 | 0.00 | 0.00 | 0.00 | 93 | 1009.7 |
| 20260830211855 | 63 | 155 | 2.0 | 4.0 | 0.00 | 0.00 | 0.00 | 92 | 1009.8 |
| 20260830205855 | 64 | 153 | 4.0 | 7.0 | 0.00 | 0.00 | 0.00 | 92 | 1010.0 |
| 20260830204855 | 64 | 157 | 4.0 | 6.0 | 0.00 | 0.00 | 0.00 | 91 | 1010.0 |
| 20260830203855 | 64 | 152 | 3.0 | 6.0 | 0.00 | 0.00 | 0.00 | 90 | 1009.9 |
| 20260830202857 | 64 | 150 | 4.0 | 6.0 | 0.00 | 0.00 | 0.00 | 90 | 1009.9 |
| 20260830201856 | 65 | 144 | 2.0 | 4.0 | 0.00 | 0.00 | 0.00 | 89 | 1010.1 |
| 20260830194856 | 66 | 157 | 4.0 | 7.0 | 0.00 | 0.00 | 0.00 | 87 | 1010.3 |
| 20260830192856 | 67 | 174 | 7.0 | 12.0 | 0.00 | 0.00 | 0.00 | 85 | 1010.4 |
| 20260830190856 | 67 | 156 | 2.0 | 5.0 | 0.00 | 0.00 | 0.00 | 83 | 1010.3 |
| 20260830185856 | 67 | 154 | 2.0 | 4.0 | 0.00 | 0.00 | 0.00 | 82 | 1010.3 |
| 20260830184856 | 67 | 154 | 2.0 | 4.0 | 0.00 | 0.00 | 0.00 | 81 | 1010.3 |
| 20260830183855 | 67 | 154 | 1.0 | 3.0 | 0.00 | 0.00 | 0.00 | 80 | 1010.3 |
| 20260830182856 | 68 | 154 | 2.0 | 4.0 | 0.00 | 0.00 | 0.00 | 79 | 1010.3 |
| 20260830181856 | 68 | 158 | 2.0 | 5.0 | 0.00 | 0.00 | 0.00 | 78 | 1010.4 |
| 20260830180855 | 69 | 162 | 4.0 | 7.0 | 0.00 | 0.00 | 0.00 | 77 | 1010.5 |
| 20260830175856 | 69 | 163 | 6.0 | 10.0 | 0.00 | 0.01 | 0.00 | 76 | 1010.5 |
| 20260830174856 | 69 | 162 | 5.0 | 9.0 | 0.00 | 0.01 | 0.00 | 75 | 1010.6 |
| 20260830173857 | 70 | 163 | 4.0 | 7.0 | 0.00 | 0.01 | 0.00 | 75 | 1010.6 |
| 20260830172856 | 70 | 164 | 5.0 | 9.0 | 0.00 | 0.01 | 0.00 | 74 | 1010.6 |
| 20260830171856 | 71 | 164 | 5.0 | 10.0 | 0.00 | 0.01 | 0.00 | 73 | 1010.8 |
| 20260830165856 | 71 | 164 | 5.0 | 8.0 | 0.00 | 0.01 | 0.00 | 72 | 1010.8 |
| 20260830164856 | 71 | 164 | 6.0 | 10.0 | 0.00 | 0.01 | 0.00 | 72 | 1010.7 |
| 20260830162856 | 72 | 173 | 6.0 | 10.0 | 0.00 | 0.02 | 0.00 | 71 | 1010.8 |
| 20260830161856 | 72 | 182 | 7.0 | 13.0 | 0.00 | 0.05 | 0.00 | 69 | 1010.8 |
| 20260830160856 | 72 | 172 | 7.0 | 12.0 | 0.00 | 0.07 | 0.00 | 71 | 1011.0 |
| 20260830155856 | 72 | 172 | 6.0 | 12.0 | 0.00 | 0.07 | 0.00 | 72 | 1011.0 |
| 20260830154858 | 72 | 182 | 7.0 | 12.0 | 0.00 | 0.07 | 0.00 | 72 | 1010.9 |
| 20260830153856 | 71 | 182 | 7.0 | 12.0 | 0.00 | 0.07 | 0.00 | 72 | 1011.1 |
| 20260830151856 | 72 | 182 | 6.0 | 12.0 | 0.00 | 0.07 | 0.00 | 73 | 1011.1 |
| 20260830150856 | 71 | 178 | 6.0 | 15.0 | 0.00 | 0.08 | 0.00 | 73 | 1011.3 |
| 20260830145857 | 71 | 187 | 6.0 | 12.0 | 0.00 | 0.08 | 0.00 | 75 | 1011.3 |
| 20260830144857 | 71 | 185 | 6.0 | 11.0 | 0.00 | 0.08 | 0.00 | 76 | 1011.3 |
| 20260830143856 | 71 | 183 | 5.0 | 10.0 | 0.00 | 0.08 | 0.00 | 76 | 1011.3 |
| 20260830142857 | 71 | 185 | 6.0 | 12.0 | 0.00 | 0.08 | 0.00 | 76 | 1011.3 |
| 20260830141858 | 71 | 185 | 6.0 | 11.0 | 0.00 | 0.08 | 0.00 | 77 | 1011.3 |
| 20260830140857 | 71 | 177 | 8.0 | 14.0 | 0.00 | 0.08 | 0.00 | 76 | 1011.4 |
| 20260830135857 | 71 | 183 | 7.0 | 13.0 | 0.00 | 0.08 | 0.00 | 78 | 1011.4 |
| 20260830134856 | 71 | 213 | 4.0 | 9.0 | 0.00 | 0.08 | 0.00 | 79 | 1011.4 |
| 20260830133856 | 71 | 212 | 6.0 | 11.0 | 0.00 | 0.08 | 0.00 | 78 | 1011.5 |
| 20260830132856 | 71 | 198 | 4.0 | 9.0 | 0.00 | 0.08 | 0.00 | 78 | 1011.5 |
| 20260830131857 | 71 | 198 | 7.0 | 14.0 | 0.00 | 0.09 | 0.00 | 79 | 1011.5 |
| 20260830130857 | 71 | 194 | 7.0 | 15.0 | 0.00 | 0.09 | 0.00 | 78 | 1011.4 |
| 20260830125857 | 71 | 195 | 7.0 | 15.0 | 0.00 | 0.09 | 0.00 | 77 | 1011.4 |
| 20260830124857 | 71 | 199 | 5.0 | 11.0 | 0.00 | 0.09 | 0.00 | 80 | 1011.4 |
| 20260830123856 | 70 | 196 | 6.0 | 10.0 | 0.00 | 0.09 | 0.00 | 80 | 1011.4 |
| 20260830122858 | 70 | 195 | 6.0 | 12.0 | 0.00 | 0.09 | 0.00 | 80 | 1011.4 |
| 20260830121857 | 71 | 208 | 6.0 | 17.0 | 0.00 | 0.09 | 0.00 | 78 | 1011.3 |
| 20260830120856 | 71 | 190 | 7.0 | 13.0 | 0.00 | 0.09 | 0.00 | 79 | 1011.3 |
| 20260830115857 | 71 | 185 | 6.0 | 12.0 | 0.00 | 0.09 | 0.00 | 80 | 1011.3 |
| 20260830114856 | 70 | 190 | 8.0 | 14.0 | 0.00 | 0.09 | 0.00 | 80 | 1011.3 |
| 20260830113857 | 69 | 192 | 7.0 | 15.0 | 0.00 | 0.09 | 0.00 | 82 | 1011.3 |
| 20260830112857 | 68 | 188 | 10.0 | 19.0 | 0.00 | 0.09 | 0.00 | 82 | 1011.3 |
| 20260830111857 | 69 | 187 | 10.0 | 21.0 | 0.00 | 0.09 | 0.00 | 81 | 1011.1 |
| 20260830110856 | 69 | 181 | 10.0 | 18.0 | 0.00 | 0.09 | 0.00 | 82 | 1011.0 |
| 20260830105857 | 69 | 181 | 9.0 | 16.0 | 0.00 | 0.09 | 0.00 | 82 | 1011.0 |
| 20260830104858 | 69 | 181 | 10.0 | 19.0 | 0.00 | 0.09 | 0.00 | 84 | 1011.0 |
| 20260830103857 | 68 | 186 | 9.0 | 18.0 | 0.00 | 0.09 | 0.00 | 84 | 1011.0 |
| 20260830102857 | 68 | 182 | 9.0 | 17.0 | 0.00 | 0.09 | 0.00 | 85 | 1011.0 |
| 20260830101857 | 67 | 182 | 9.0 | 18.0 | 0.00 | 0.09 | 0.00 | 86 | 1011.0 |
| 20260830100858 | 67 | 184 | 12.0 | 19.0 | 0.00 | 0.09 | 0.00 | 86 | 1010.9 |
| 20260830095857 | 67 | 184 | 12.0 | 21.0 | 0.00 | 0.09 | 0.00 | 86 | 1010.8 |
| 20260830094857 | 68 | 181 | 14.0 | 27.0 | 0.00 | 0.09 | 0.00 | 85 | 1010.8 |
| 20260830093857 | 68 | 186 | 11.0 | 24.0 | 0.00 | 0.09 | 0.00 | 83 | 1010.6 |
| 20260830092857 | 68 | 190 | 10.0 | 18.0 | 0.00 | 0.09 | 0.00 | 84 | 1010.6 |
| 20260830091857 | 67 | 188 | 10.0 | 19.0 | 0.00 | 0.09 | 0.00 | 85 | 1010.4 |
| 20260830090857 | 67 | 191 | 9.0 | 18.0 | 0.00 | 0.09 | 0.00 | 86 | 1010.3 |
| 20260830085857 | 66 | 189 | 9.0 | 19.0 | 0.00 | 0.09 | 0.00 | 87 | 1010.3 |
| 20260830084857 | 66 | 185 | 11.0 | 21.0 | 0.00 | 0.09 | 0.00 | 87 | 1010.3 |
| 20260830083859 | 66 | 186 | 10.0 | 19.0 | 0.00 | 0.09 | 0.00 | 88 | 1010.1 |
| 20260830082857 | 65 | 186 | 9.0 | 16.0 | 0.00 | 0.09 | 0.00 | 88 | 1010.1 |
| 20260830081857 | 65 | 182 | 11.0 | 18.0 | 0.00 | 0.09 | 0.00 | 89 | 1009.8 |
| 20260830080857 | 65 | 182 | 11.0 | 18.0 | 0.00 | 0.09 | 0.00 | 90 | 1009.8 |
| 20260830075857 | 65 | 184 | 10.0 | 18.0 | 0.00 | 0.09 | 0.00 | 90 | 1009.8 |
| 20260830074857 | 64 | 177 | 10.0 | 20.0 | 0.00 | 0.09 | 0.00 | 90 | 1009.7 |
| 20260830073857 | 64 | 177 | 10.0 | 18.0 | 0.00 | 0.09 | 0.00 | 91 | 1009.5 |
| 20260830072858 | 64 | 177 | 10.0 | 16.0 | 0.00 | 0.09 | 0.00 | 92 | 1009.5 |
| 20260830071857 | 63 | 174 | 10.0 | 18.0 | 0.00 | 0.09 | 0.00 | 93 | 1009.3 |
| 20260830070857 | 63 | 173 | 9.0 | 18.0 | 0.00 | 0.09 | 0.00 | 93 | 1009.2 |
| 20260830065858 | 63 | 177 | 9.0 | 17.0 | 0.00 | 0.09 | 0.00 | 94 | 1009.2 |
| 20260830064857 | 63 | 173 | 10.0 | 19.0 | 0.00 | 0.09 | 0.00 | 93 | 1009.1 |
| 20260830063901 | 63 | 175 | 10.0 | 20.0 | 0.00 | 0.09 | 0.00 | 93 | 1009.0 |
| 20260830062857 | 63 | 182 | 10.0 | 18.0 | 0.00 | 0.09 | 0.00 | 92 | 1009.0 |
| 20260830061858 | 63 | 181 | 12.0 | 21.0 | 0.00 | 0.09 | 0.00 | 91 | 1008.7 |
| 20260830060857 | 64 | 185 | 13.0 | 24.0 | 0.00 | 0.09 | 0.00 | 89 | 1008.4 |
| 20260830055858 | 64 | 184 | 10.0 | 18.0 | 0.00 | 0.09 | 0.00 | 88 | 1008.4 |
| 20260830053858 | 64 | 184 | 10.0 | 19.0 | 0.00 | 0.09 | 0.00 | 87 | 1008.2 |
| 20260830052858 | 64 | 184 | 10.0 | 18.0 | 0.00 | 0.09 | 0.00 | 87 | 1008.2 |
| 20260830051859 | 64 | 181 | 11.0 | 18.0 | 0.00 | 0.09 | 0.00 | 86 | 1008.1 |